| time (UTC) | temp C | wind direction | speed KPH | gust KPH | rain 1hr cm | rain 24hr cm | rain mn cm | humidity % | barometer mb |
| 20260905130041 | 13 | 163 | 0.0 | 0.0 | 0.00 | 0.00 | 0.00 | 41 | 1012.4 |
| 20260905124544 | 13 | 163 | 0.0 | 0.0 | 0.00 | 0.00 | 0.00 | 42 | 1012.3 |
| 20260905123041 | 13 | 163 | 0.0 | 0.0 | 0.00 | 0.00 | 0.00 | 40 | 1012.3 |
| 20260905121544 | 13 | 163 | 0.0 | 0.0 | 0.00 | 0.00 | 0.00 | 39 | 1012.3 |
| 20260905120052 | 13 | 163 | 0.0 | 0.0 | 0.00 | 0.00 | 0.00 | 39 | 1012.4 |
| 20260905114550 | 14 | 163 | 0.0 | 0.0 | 0.00 | 0.00 | 0.00 | 40 | 1012.3 |
| 20260905113046 | 14 | 163 | 0.0 | 0.0 | 0.00 | 0.00 | 0.00 | 41 | 1012.5 |
| 20260905111609 | 14 | 163 | 0.0 | 0.0 | 0.00 | 0.00 | 0.00 | 42 | 1012.4 |
| 20260905110033 | 13 | 163 | 0.0 | 0.0 | 0.00 | 0.00 | 0.00 | 42 | 1012.8 |
| 20260905104531 | 13 | 163 | 0.0 | 0.0 | 0.00 | 0.00 | 0.00 | 42 | 1012.8 |
| 20260905103035 | 13 | 163 | 0.0 | 0.0 | 0.00 | 0.00 | 0.00 | 39 | 1012.9 |
| 20260905101529 | 13 | 163 | 0.0 | 0.0 | 0.00 | 0.00 | 0.00 | 36 | 1012.8 |
| 20260905100027 | 13 | 163 | 0.0 | 1.6 | 0.00 | 0.00 | 0.00 | 35 | 1012.9 |
| 20260905094526 | 13 | 163 | 0.0 | 4.8 | 0.00 | 0.00 | 0.00 | 35 | 1013.1 |
| 20260905093024 | 12 | 170 | 0.0 | 0.0 | 0.00 | 0.00 | 0.00 | 37 | 1013.1 |
| 20260905091520 | 12 | 96 | 0.0 | 0.0 | 0.00 | 0.00 | 0.00 | 38 | 1013.0 |
| 20260905090018 | 12 | 95 | 0.0 | 0.0 | 0.00 | 0.00 | 0.00 | 40 | 1013.1 |
| 20260905084517 | 12 | 94 | 0.0 | 0.0 | 0.00 | 0.00 | 0.00 | 41 | 1013.3 |
| 20260905083015 | 12 | 94 | 0.0 | 0.0 | 0.00 | 0.00 | 0.00 | 42 | 1013.4 |
| 20260905081512 | 12 | 94 | 0.0 | 0.0 | 0.00 | 0.00 | 0.00 | 45 | 1013.4 |
| 20260905080011 | 12 | 94 | 0.0 | 0.0 | 0.00 | 0.00 | 0.00 | 47 | 1013.4 |
| 20260905074510 | 12 | 94 | 0.0 | 0.0 | 0.00 | 0.00 | 0.00 | 48 | 1013.6 |
| 20260905073008 | 12 | 94 | 0.0 | 0.0 | 0.00 | 0.00 | 0.00 | 49 | 1013.6 |
| 20260905071505 | 12 | 94 | 0.0 | 0.0 | 0.00 | 0.00 | 0.00 | 48 | 1013.3 |
| 20260905070007 | 12 | 94 | 0.0 | 0.0 | 0.00 | 0.00 | 0.00 | 47 | 1013.4 |
| 20260905064510 | 12 | 94 | 0.0 | 0.0 | 0.00 | 0.00 | 0.00 | 47 | 1013.0 |
| 20260905063003 | 12 | 94 | 0.0 | 0.0 | 0.00 | 0.00 | 0.00 | 49 | 1013.1 |
| 20260905061502 | 13 | 94 | 0.0 | 0.0 | 0.00 | 0.00 | 0.00 | 50 | 1013.0 |
| 20260905060001 | 13 | 94 | 0.0 | 0.0 | 0.00 | 0.00 | 0.00 | 52 | 1013.0 |
| 20260905054506 | 13 | 94 | 0.0 | 0.0 | 0.00 | 0.00 | 0.00 | 52 | 1012.9 |
| 20260905053001 | 13 | 94 | 0.0 | 0.0 | 0.00 | 0.00 | 0.00 | 53 | 1012.9 |
| 20260905051600 | 14 | 94 | 0.0 | 0.0 | 0.00 | 0.00 | 0.00 | 53 | 1012.9 |
| 20260905050101 | 15 | 94 | 0.0 | 0.0 | 0.00 | 0.00 | 0.00 | 55 | 1012.8 |
| 20260905044559 | 15 | 94 | 0.0 | 0.0 | 0.00 | 0.00 | 0.00 | 54 | 1012.6 |
| 20260905043105 | 15 | 94 | 0.0 | 0.0 | 0.00 | 0.00 | 0.00 | 50 | 1012.5 |
| 20260905041601 | 15 | 300 | 0.0 | 0.0 | 0.00 | 0.00 | 0.00 | 48 | 1012.7 |
| 20260905040057 | 16 | 302 | 0.0 | 0.0 | 0.00 | 0.00 | 0.00 | 50 | 1012.6 |
| 20260905034604 | 16 | 302 | 0.0 | 0.0 | 0.00 | 0.00 | 0.00 | 50 | 1012.4 |
| 20260905033057 | 16 | 302 | 0.0 | 0.0 | 0.00 | 0.00 | 0.00 | 50 | 1012.2 |
| 20260905031557 | 17 | 302 | 0.0 | 0.0 | 0.00 | 0.00 | 0.00 | 50 | 1012.1 |
| 20260905030115 | 18 | 302 | 0.0 | 0.0 | 0.00 | 0.00 | 0.00 | 48 | 1012.0 |
| 20260905024557 | 19 | 302 | 0.0 | 0.0 | 0.00 | 0.00 | 0.00 | 47 | 1012.0 |
| 20260905023155 | 20 | 302 | 0.0 | 0.0 | 0.00 | 0.00 | 0.00 | 46 | 1011.9 |
| 20260905021553 | 20 | 302 | 0.0 | 0.0 | 0.00 | 0.00 | 0.00 | 45 | 1011.7 |
| 20260905020053 | 21 | 302 | 0.0 | 3.2 | 0.00 | 0.00 | 0.00 | 44 | 1011.8 |
| 20260905014557 | 21 | 294 | 0.0 | 0.0 | 0.00 | 0.00 | 0.00 | 43 | 1011.7 |
| 20260905013054 | 22 | 300 | 0.0 | 1.6 | 0.00 | 0.00 | 0.00 | 43 | 1011.7 |
| 20260905011552 | 22 | 302 | 0.0 | 8.0 | 0.00 | 0.00 | 0.00 | 42 | 1011.7 |
| 20260905010051 | 22 | 296 | 0.0 | 12.9 | 0.00 | 0.00 | 0.00 | 41 | 1011.7 |
| 20260905004551 | 23 | 301 | 1.6 | 12.9 | 0.00 | 0.00 | 0.00 | 41 | 1011.7 |
| 20260905003050 | 23 | 296 | 0.0 | 4.8 | 0.00 | 0.00 | 0.00 | 40 | 1011.8 |
| 20260905001549 | 24 | 279 | 0.0 | 8.0 | 0.00 | 0.00 | 0.00 | 41 | 1011.7 |
| 20260905000049 | 24 | 315 | 3.2 | 19.3 | 0.00 | 0.00 | 0.00 | 41 | 1011.8 |
| 20260904234550 | 25 | 304 | 4.8 | 20.9 | 0.00 | 0.00 | 0.00 | 40 | 1011.8 |
| 20260904233046 | 25 | 313 | 1.6 | 22.5 | 0.00 | 0.00 | 0.00 | 39 | 1011.9 |
| 20260904231544 | 25 | 298 | 6.4 | 19.3 | 0.00 | 0.00 | 0.00 | 38 | 1011.8 |
| 20260904230043 | 26 | 306 | 6.4 | 19.3 | 0.00 | 0.00 | 0.00 | 37 | 1011.9 |
| 20260904224542 | 26 | 313 | 6.4 | 22.5 | 0.00 | 0.00 | 0.00 | 35 | 1011.9 |
| 20260904223048 | 27 | 281 | 1.6 | 11.3 | 0.00 | 0.00 | 0.00 | 32 | 1011.9 |
| 20260904221547 | 27 | 255 | 0.0 | 6.4 | 0.00 | 0.00 | 0.00 | 30 | 1012.2 |
| 20260904220041 | 27 | 273 | 0.0 | 20.9 | 0.00 | 0.00 | 0.00 | 28 | 1012.2 |
| 20260904214539 | 27 | 246 | 1.6 | 27.4 | 0.00 | 0.00 | 0.00 | 29 | 1012.3 |
| 20260904213033 | 28 | 288 | 6.4 | 19.3 | 0.00 | 0.00 | 0.00 | 27 | 1012.2 |
| 20260904211535 | 30 | 283 | 3.2 | 19.3 | 0.00 | 0.00 | 0.00 | 25 | 1012.3 |
| 20260904210028 | 30 | 170 | 0.0 | 14.5 | 0.00 | 0.00 | 0.00 | 22 | 1012.5 |
| 20260904204528 | 30 | 317 | 1.6 | 12.9 | 0.00 | 0.00 | 0.00 | 22 | 1012.4 |
| 20260904203030 | 30 | 237 | 0.0 | 6.4 | 0.00 | 0.00 | 0.00 | 20 | 1012.4 |
| 20260904201529 | 30 | 263 | 1.6 | 12.9 | 0.00 | 0.00 | 0.00 | 18 | 1012.5 |
| 20260904200019 | 30 | 234 | 0.0 | 4.8 | 0.00 | 0.00 | 0.00 | 18 | 1012.8 |
| 20260904194533 | 29 | 211 | 0.0 | 0.0 | 0.00 | 0.00 | 0.00 | 17 | 1012.9 |
| 20260904193032 | 28 | 194 | 1.6 | 12.9 | 0.00 | 0.00 | 0.00 | 17 | 1013.2 |
| 20260904191513 | 28 | 150 | 0.0 | 8.0 | 0.00 | 0.00 | 0.00 | 17 | 1013.3 |
| 20260904190010 | 28 | 195 | 0.0 | 12.9 | 0.00 | 0.00 | 0.00 | 17 | 1013.2 |
| 20260904184510 | 28 | 260 | 0.0 | 8.0 | 0.00 | 0.00 | 0.00 | 17 | 1013.3 |
| 20260904183008 | 27 | 159 | 0.0 | 0.0 | 0.00 | 0.00 | 0.00 | 18 | 1013.2 |
| 20260904181503 | 27 | 223 | 0.0 | 0.0 | 0.00 | 0.00 | 0.00 | 18 | 1013.5 |
| 20260904174559 | 26 | 215 | 0.0 | 0.0 | 0.00 | 0.00 | 0.00 | 20 | 1013.5 |
| 20260904173103 | 26 | 207 | 0.0 | 0.0 | 0.00 | 0.00 | 0.00 | 21 | 1013.4 |
| 20260904171552 | 25 | 197 | 0.0 | 0.0 | 0.00 | 0.00 | 0.00 | 22 | 1013.3 |
| 20260904170049 | 25 | 196 | 0.0 | 0.0 | 0.00 | 0.00 | 0.00 | 21 | 1013.1 |
| 20260904164546 | 24 | 190 | 0.0 | 0.0 | 0.00 | 0.00 | 0.00 | 20 | 1013.0 |
| 20260904163041 | 23 | 125 | 0.0 | 0.0 | 0.00 | 0.00 | 0.00 | 19 | 1012.9 |
| 20260904161544 | 21 | 122 | 0.0 | 0.0 | 0.00 | 0.00 | 0.00 | 20 | 1012.8 |
| 20260904160036 | 19 | 122 | 0.0 | 0.0 | 0.00 | 0.00 | 0.00 | 22 | 1012.6 |
| 20260904154528 | 16 | 122 | 0.0 | 0.0 | 0.00 | 0.00 | 0.00 | 24 | 1012.7 |
| 20260904153026 | 14 | 122 | 0.0 | 0.0 | 0.00 | 0.00 | 0.00 | 29 | 1012.7 |
| 20260904151533 | 12 | 122 | 0.0 | 0.0 | 0.00 | 0.00 | 0.00 | 38 | 1012.5 |
| 20260904150015 | 11 | 122 | 0.0 | 0.0 | 0.00 | 0.00 | 0.00 | 42 | 1012.3 |
| 20260904144512 | 10 | 121 | 0.0 | 0.0 | 0.00 | 0.00 | 0.00 | 47 | 1012.2 |
| 20260904143010 | 10 | 121 | 0.0 | 0.0 | 0.00 | 0.00 | 0.00 | 46 | 1012.0 |
| 20260904141509 | 9 | 278 | 0.0 | 0.0 | 0.00 | 0.00 | 0.00 | 45 | 1011.9 |
| 20260904140007 | 8 | 294 | 0.0 | 0.0 | 0.00 | 0.00 | 0.00 | 45 | 1011.7 |
| 20260904134506 | 8 | 294 | 0.0 | 0.0 | 0.00 | 0.00 | 0.00 | 51 | 1011.7 |
| 20260904133005 | 8 | 294 | 0.0 | 0.0 | 0.00 | 0.00 | 0.00 | 50 | 1011.7 |
| 20260904131503 | 9 | 294 | 0.0 | 0.0 | 0.00 | 0.00 | 0.00 | 49 | 1011.7 |